Tracking 35036 objects as of 15-Aug-2026
HD Live streaming from Space Station
objects crossing your sky now

STRIX-8

Track STRIX-8 now!
10-day predictions


NORAD ID: 69701
Int'l Code: 2026-146A
Launch date: June 26, 2026
Source: Japan (JPN)
Launch site: Rocket Lab Launch Complex (RLLC)
Your satellite tracking list
Your tracking list is empty




NASA's NSSDC Master Catalog

Two Line Element Set (TLE):
1 69701U 26146A   26227.61892614  .00001614  00000-0  12629-3 0  9993
2 69701  41.9890 198.9883 0008481 242.3517 117.6450 15.04625421  7514
Source of the keplerian elements: AFSPC